Location: Norton
(51.3000°N, 0.8167°E)
Time: 02:25:59
(UTC+00:00)

Cosmos 1933 Rocket - Pass Details

Date: 03 March 2021
Orbit: 607 x 629 km, 82.5° (Epoch: 13 April)

Event Time Altitude Azimuth Distance (km) Brightness Sun altitude
Rises 18:57:13 0° 178° (S) 2,862 6.9 -12.7°
Reaches altitude 10° 18:59:26 10° 175° (S) 1,966 6.0 -13.0°
Maximum altitude 19:03:42 59° 96° (E) 713 3.5 -13.7°
Drops below altitude 10° 19:08:03 10° 17° (NNE) 1,995 6.1 -14.4°
Sets 19:10:19 0° 14° (NNE) 2,910 7.0 -14.7°
